{"data":{"norad_id":38652,"intl_designator":"2012-036A","name":"SES-5 (EGNOS/PRN 136)","alt_names":[],"object_type":"PAYLOAD","status":"ACTIVE","operator":null,"country":"SES","launch_date":"2012-07-09","launch_site_code":"TYMSC","launch_vehicle":null,"mission":null,"orbit_class":"UNKNOWN","rcs_meters":37.7081,"size_class":null,"mass_kg":null,"dimensions":null,"purposes":["comms","nav"],"wikipedia_slug":null,"has_3d_model":false,"image_url":null,"decayed_at":null,"tle_current":{"epoch":"2026-09-19T16:59:43.677888Z","epoch_age_seconds":82709,"freshness":"FRESH","line1":"1 38652U 12036A   26262.70814442  .00000030  00000+0  00000+0 0  9995","line2":"2 38652   0.0456 351.9296 0002129 181.1843  85.4181  1.00273030 45402","mean_motion":1.0027303,"eccentricity":0.0002129,"inclination_deg":0.0456,"raan_deg":351.9296,"arg_perigee_deg":181.1843,"mean_anomaly_deg":85.4181,"bstar":0,"rev_number":4540,"period_min":1436.0790733062,"perigee_km":35777.269148978,"apogee_km":35795.222743236,"semimajor_km":42164.382946107,"source":"CELESTRAK","updated_at":"2026-09-20T09:00:46.833963Z"}}}